LiveATC.Net - Listen to live air traffic control over the Internet!


ICAO: LJPZ  IATA: POW   Airport: Portoroz Airport
City: Secovlje
Country: Slovenia   Continent: Europe
LJPZ METAR Weather: LJPZ 250300Z AUTO 13008KT 9999 NCD 19/16 Q1016
LJPZ Flight Activity (FlightAware)

LJPZ Tower
Feed Status: DOWN
Last heard on: 2019-08-23 17:50:22 (1 days 9 hours 46 minutes ago)
LJPZ Tower Audio Archives
FacilityFrequency
Portoroz Tower124.875

NOTICE

Unauthorized use prohibited. See LiveATC.net Terms of Service


Airport/ARTCC Code
Frequency Search
(e.g., 124.400, 128.75)
Site-wide search
 


Browse LiveATC Feeds
Top 50 LiveATC Feeds
LiveATC Feed Map
Bad Weather Areas

LiveATC FAQ
Offer LiveATC feed
Contact LiveATC.net
Press Inquiries

LiveATC on iPhone
LiveATC on Android

Windows Phone
Windows 8/10

LiveATC Mobile
(Mobile browser)

ATC Audio Archives
Interesting Recordings

LiveATC Forums


Home Page
About LiveATC.net
Make a Donation
Terms of Use
Privacy Policy

Canadian Air Freqs

AIRMETs/SIGMETs

FAA Airport Status
Nat'l Airspace Status
Arrival Demand Charts


Server Software By:
Icecast.org
Liquidsoap